Terminal Aerodrome Forecast
Issued by NWS

Home | Current Version | Previous Version | Text Only | Print | Product List | Glossary On
Versions: 1 2 3 4 5 6 7 8 9 10 11 12 13 14 15 16 17 18
000
FTAK31 PAFA 232339
TAFASC
TAF
PASC 232339Z 2400/2424 07019G27KT P6SM OVC008
     FM240800 09015KT 3SM BR OVC008
     FM242100 09010KT P6SM BKN025=

USA.gov is the U.S. government's official web portal to all federal, state and local government web resources and services.